CLUSTER II-FM5 (RUMBA)

Last updated on June 17, 2021, 2:14 a.m. UTC

1 26463U 00045A   21169.73620823  .00000778  00000-0  00000-0 0  9992
2 26463 137.2457 346.4240 5965026 197.1142 359.5440  0.44219120 12133
UTC
Height (km)
Latitude
Longitude
Inclination
Orbital Period
UTC large
Height (km)
Speed (km/s)
/
Latitude / Longitude
Inclination (degrees)
Orbital Period (minutes)
Azimuth
Elevation
Range (km)
Doppler Factor
iOS Compass Heading
iOS Angle

Next 30 passes for location: Hong Kong

Rise time Rise Azimuth (degrees) Set time Set Azimuth (degrees) Duration Max altitude (degrees)

No matching passes for this satellites